遥感四十三号01组-C (YAOGAN-43 O1C)

导读

YAOGAN-43 O1C(遥感四十三号01C星)是中国于2024年8月16日发射的遥感卫星。作为中国遥感卫星体系的组成部分,该卫星主要用于国土资源普查、农业估产、环境监测、灾害预警及城市规划等领域,将与其他遥感卫星组网,提升中国对地观测的覆盖范围与数据获取能力,为国民经济建设和科学研究提供空间信息支撑。

基本信息
目录编号:
60460
目录名称:
YAOGAN-43 O1C
国际标识:
2024-148C
轨道中心:
EARTH
卫星名称:
遥感四十三号01组-C (YAOGAN-43 O1C)
卫星全名:
遥感四十三号01组-C (YAOGAN-43 O1C)
卫星状态:
在轨 (已飞行756 天)
发射日期:
2024-08-16 UTC
国别 :
中国 (CN)
星等 :
--
该卫星已列入 空间交会检测服务 Space Conjunction Data Service (SCDS) ,当前飞行风险评估等级: 无高风险
轨道信息
数据来源 国际轨道数据 AOE轨道数据
星历时间 2026-09-11T00:42:53+0800
15小时前
查看轨道信息
2026-09-10T12:00:00+0800
1天前
查看轨道信息
半长轴 6874.148km 6874.161km
偏心率 0.0005868 0.0005891
轨道倾角 35.000° 35.001°
近地点辐角 258.800° 256.318°
升交点赤经 344.734° 348.069°
平近点角 101.206° 73.737°
近地点 491.977km 491.974km
远地点 500.045km 500.074km
周期 94.534分钟 94.534分钟
每日圈数 15.232616 15.232572
详细信息
运营商:
中国空间技术研究院
运营商所在国:
中国
制造商(研发单位):
中国空间技术研究院
制造商所在国:
中国
使用方式:
暂无
卫星简介
遥感四十三号卫星组分别由航天科技集团五院和八院等抓总研制,主要用于开展低轨星座系统新技术试验。
2D轨道图
3D轨道图
轨道高度分析图
轨道倾角分析图
轨道综合分析图
查看轨道综合分析图
交会数据列表
事件ID 空间交会对象 最接近时刻(TCA) 交会距离 交会风险概率(CRP) 交会风险指数(CRI) 操作
CDM_260911-203805-291306-046025
2026-09-11T
20:38:34+0000
2.273 km
极远距离
1.817983E-6 低风险 0.4
CDM_260912-052904-949206-046025
2026-09-12T
05:29:49+0000
2.791 km
极远距离
1.088766E-6 低风险 0.36
与全量物体交会距离演化趋势
与全量物体交会风险概率演化趋势